Temp
12 14 13 9 4 5 3 5 2 8 7 12 14 13 14 16 18 19 19 20 21 22 24 28 31 35 41 43 46 50 53 53 56 57 57 58 57 58 57 57 56 54 54 55
7 13 0 -2 7 7 9 7 7 9 7 15 16 17 15 16 16 18 18 20 21 23 25 27 29 34 38 47 49 54 54 55 58 58 57 57 57 56 56 55 53 52 53 53
1 11 8 0 -2 -1 6 9 7 3 8 15 12 13 14 15 18 18 18 20 21 22 24 26 29 33 37 45 54 56 56 58 56 56 56 57 56 55 54 53 52 51 51 50
2 7 -9 2 5 6 -0 5 3 10 12 13 13 15 17 20 18 18 19 20 21 23 25 27 31 36 40 44 56 56 55 56 56 56 55 55 55 55 53 52 51 50 50 50
-2 -0 5 9 9 6 -2 5 3 10 11 13 14 16 20 22 20 20 20 21 22 25 25 28 34 38 40 47 55 54 54 56 56 56 55 55 54 54 53 52 51 50 50 50
4 -4 -5 1 14 19 8 -3 14 13 11 11 13 7 13 19 20 21 22 22 23 25 27 32 35 39 44 55 54 53 54 54 56 54 54 54 54 54 53 53 51 51 50 50
3 -1 5 11 16 17 1 3 13 12 12 13 10 13 17 20 20 22 22 22 25 25 25 30 35 43 53 53 53 54 54 53 53 53 53 52 51 51 51 50 50 49 49 49
1 -7 -3 13 14 6 8 14 13 12 14 13 16 17 19 19 20 20 20 22 23 24 25 30 35 44 48 48 50 52 52 50 49 50 50 51 50 50 50 49 48 48 47 46
7 9 15 14 14 16 15 12 13 13 15 16 16 17 19 19 19 20 21 22 23 23 25 30 34 36 37 38 48 48 47 47 47 47 47 48 46 46 45 47 46 45 45 44
8 12 13 16 16 16 15 13 16 17 16 17 16 18 18 19 20 19 21 21 22 23 24 27 32 34 34 36 43 42 39 39 42 40 38 40 42 44 44 43 43 43 43 42
7 11 14 14 14 13 15 16 17 18 17 18 17 17 18 18 19 20 21 21 22 22 23 26 30 33 34 35 38 36 36 36 36 38 38 37 38 39 40 40 46 44 43 43
7 11 10 11 13 16 12 14 16 16 17 18 17 16 18 18 20 21 20 21 21 22 24 26 29 31 33 34 35 37 36 36 37 38 39 39 40 39 43 43 44 44 45 45
10 10 10 14 13 14 12 14 16 18 16 15 17 17 18 17 19 22 20 20 20 22 24 26 28 29 31 33 35 35 34 35 38 38 38 38 38 38 37 40 42 43 43 43
10 5 9 12 10 12 13 15 17 15 16 15 16 17 17 17 18 18 18 20 21 23 24 25 27 28 30 32 34 35 35 37 35 36 36 36 36 37 38 38 37 37 42 43
7 8 10 8 10 11 11 13 13 13 14 15 16 15 16 15 15 16 19 21 22 23 23 24 26 27 30 31 33 34 34 34 35 35 36 36 36 36 36 37 37 37 39 41
3 4 4 3 8 9 5 9 12 13 15 15 15 15 15 15 17 18 19 20 19 20 23 24 26 27 29 30 31 33 34 37 37 35 35 35 35 35 36 36 36 37 37 37
4 5 3 4 3 4 3 6 9 12 15 14 14 15 14 15 17 17 18 19 21 22 24 25 26 27 28 30 30 31 33 34 37 35 34 35 35 35 35 35 35 35 36 38
-4 -5 -3 0 2 4 8 9 11 12 14 14 15 13 13 14 14 15 17 19 21 23 24 25 28 27 27 31 29 30 31 32 33 33 34 34 34 34 34 34 35 34 34 34
-7 -1 0 2 3 7 9 11 11 11 13 13 14 14 12 14 15 16 18 19 20 21 23 26 29 26 26 30 29 28 30 30 31 31 32 34 33 33 32 32 31 31 31 31
-6 -6 -1 1 5 7 10 8 10 13 13 15 15 15 15 15 16 16 17 17 19 22 26 27 27 25 26 27 29 25 26 28 29 30 30 30 30 30 30 31 29 29 29 28
3 5 7 11 12 14 15 15 15 14 14 16 16 16 16 16 18 17 17 17 21 26 26 28 27 27 27 26 23 22 23 25 26 27 27 27 27 27 27 27 27 27 26 26
7 9 12 14 13 13 14 13 14 16 15 15 16 16 16 17 18 18 20 19 23 28 25 25 26 29 27 25 21 21 21 21 23 25 25 25 25 25 25 25 25 25 25 24
13 14 15 15 14 13 12 13 14 15 15 16 17 17 17 18 17 15 15 20 25 26 23 25 28 28 27 21 20 20 20 20 20 22 23 24 24 24 23 23 23 24 23 23
14 14 15 17 15 14 12 13 13 15 16 18 20 19 18 16 17 18 19 22 26 24 24 26 27 27 24 19 20 20 19 20 20 21 23 25 23 23 23 23 23 24 24 24
14 14 14 13 13 14 13 14 13 14 16 18 20 20 20 19 17 19 17 18 23 21 19 26 26 24 20 19 19 18 20 21 20 20 21 21 22 22 22 22 22 22 22 22
12 12 12 13 13 13 13 14 14 15 18 18 19 20 20 20 19 17 17 20 19 20 17 18 21 18 18 19 18 19 19 18 19 20 19 19 19 20 20 20 20 21 21 21
11 18 12 12 14 16 15 15 15 16 19 19 19 20 19 19 19 18 19 16 16 16 15 15 16 19 18 17 17 17 17 20 21 18 18 18 19 19 19 19 20 20 20 20
MSLP
1034.67 1033.84 1033.86 1034.21 1034.25 1034.51 1034.48 1033.59 1032.53 1028.71 1027.94 1025.21 1024.35 1023.05 1021.25 1019.27 1017.03 1015.10 1013.29 1011.42 1010.07 1008.49 1006.75 1004.98 1003.36 1001.54 1000.03 999.81 999.95 1000.26 1000.72 1002.01 1002.83 1002.56 1002.47 1003.08 1004.56 1005.01 1006.14 1007.53 1008.89 1010.08 1011.40 1013.46
1033.77 1033.03 1033.71 1034.03 1034.42 1034.43 1033.89 1033.03 1031.70 1030.21 1028.32 1026.86 1025.03 1023.30 1020.96 1018.78 1016.89 1014.77 1012.75 1010.88 1009.17 1007.60 1006.07 1004.49 1002.98 1001.32 999.77 999.03 999.76 999.77 1000.68 1001.31 1001.44 1001.93 1002.54 1003.55 1004.61 1005.70 1006.27 1007.61 1008.99 1010.34 1011.75 1012.61
1034.29 1033.25 1033.29 1033.84 1033.91 1034.32 1033.65 1032.53 1031.70 1030.56 1028.91 1026.79 1024.52 1022.93 1020.39 1017.81 1016.51 1014.97 1012.90 1010.81 1008.92 1007.28 1005.64 1004.08 1002.58 1001.31 1000.02 999.46 999.25 999.69 999.57 999.82 1000.64 1001.07 1001.89 1002.71 1004.44 1005.98 1006.76 1007.33 1008.86 1010.34 1011.62 1012.78
1035.69 1034.23 1033.42 1033.42 1033.16 1032.85 1032.76 1031.76 1031.25 1030.93 1028.83 1027.50 1025.57 1023.31 1020.75 1018.67 1016.92 1014.70 1012.42 1010.67 1008.27 1006.47 1004.62 1002.81 1001.37 1000.13 999.47 998.07 996.80 997.00 998.05 999.07 1000.08 1001.24 1002.62 1003.11 1004.96 1006.15 1006.90 1007.72 1008.67 1010.08 1010.79 1011.88
1037.02 1036.02 1033.67 1033.26 1033.24 1033.18 1032.92 1030.97 1031.05 1030.49 1028.66 1026.66 1024.57 1022.22 1019.16 1018.25 1016.49 1014.97 1012.48 1010.64 1008.65 1006.51 1004.69 1002.30 1000.42 999.07 997.57 996.47 996.88 997.20 997.96 998.90 1000.08 1001.28 1002.17 1002.42 1005.43 1006.24 1006.70 1007.76 1008.65 1009.57 1010.84 1012.02
1037.71 1037.29 1034.96 1033.42 1032.87 1031.85 1032.47 1031.90 1030.75 1030.32 1029.12 1027.19 1024.79 1022.27 1019.22 1017.50 1015.54 1013.51 1011.95 1009.82 1008.24 1006.51 1004.05 1001.77 1000.07 998.70 997.90 996.65 996.86 997.75 998.51 999.59 1000.81 1001.83 1002.43 1004.50 1005.65 1006.07 1006.76 1007.54 1008.70 1009.70 1011.02 1011.83
1038.00 1037.13 1034.68 1033.67 1032.58 1031.50 1032.45 1032.84 1031.31 1030.75 1029.71 1027.75 1026.53 1025.64 1022.45 1019.55 1017.09 1015.38 1012.65 1010.45 1006.62 1006.22 1004.21 1003.18 1000.21 997.78 996.98 997.37 997.40 998.23 999.18 1000.49 1001.66 1002.80 1003.69 1004.95 1005.74 1006.39 1007.14 1007.92 1008.95 1009.90 1010.89 1011.74
1038.30 1036.88 1034.42 1033.11 1032.51 1033.35 1033.34 1032.27 1031.98 1030.73 1029.70 1027.96 1026.42 1024.28 1022.50 1020.20 1018.33 1015.70 1013.25 1009.35 1007.55 1005.51 1004.01 1002.79 1000.84 998.75 998.63 998.91 999.50 999.89 1000.51 1001.75 1003.05 1003.68 1004.44 1005.60 1006.02 1006.55 1007.39 1008.22 1009.31 1010.23 1011.26 1012.31
1037.79 1034.89 1033.23 1033.22 1033.49 1033.42 1033.20 1032.84 1031.60 1030.61 1029.59 1028.15 1026.06 1024.16 1022.42 1020.87 1018.84 1016.89 1014.87 1012.51 1009.57 1008.04 1006.72 1003.92 1002.58 1001.50 1000.33 1000.54 1000.50 1000.95 1001.70 1003.22 1003.83 1004.37 1004.93 1005.62 1006.76 1007.55 1008.25 1008.80 1009.66 1010.75 1011.47 1012.64
1037.35 1034.45 1033.73 1033.29 1033.44 1033.45 1033.37 1032.80 1031.79 1030.35 1029.44 1028.24 1026.32 1024.44 1022.60 1020.86 1019.25 1018.59 1016.78 1014.45 1012.62 1010.06 1007.68 1006.87 1005.19 1003.63 1002.70 1002.06 1002.06 1002.16 1003.54 1004.38 1005.14 1005.07 1007.09 1007.58 1007.82 1008.10 1008.79 1009.72 1010.24 1011.01 1011.90 1012.88
1036.90 1035.02 1034.11 1033.55 1033.44 1033.49 1032.99 1032.36 1031.72 1030.08 1029.59 1028.49 1026.91 1025.01 1023.53 1021.93 1019.97 1018.72 1017.55 1015.72 1013.82 1012.68 1010.46 1009.32 1007.11 1005.39 1004.77 1004.31 1003.84 1004.42 1005.18 1005.55 1005.88 1007.21 1007.56 1007.73 1008.20 1009.28 1009.63 1010.06 1010.26 1011.01 1011.83 1012.73
1036.13 1035.17 1035.15 1034.11 1033.75 1033.74 1033.44 1032.70 1031.86 1030.65 1028.86 1028.57 1027.46 1025.80 1023.76 1022.57 1021.15 1019.55 1017.66 1016.40 1014.80 1012.94 1011.89 1010.32 1008.77 1007.65 1006.46 1005.62 1005.37 1005.76 1006.46 1006.71 1007.20 1007.30 1007.80 1008.58 1009.69 1010.38 1010.66 1010.42 1011.30 1011.73 1012.07 1012.70
1035.74 1035.49 1035.27 1034.39 1034.25 1033.90 1033.72 1032.91 1032.12 1031.11 1029.76 1029.21 1027.79 1026.70 1025.17 1023.28 1021.12 1020.03 1019.29 1017.30 1015.81 1014.60 1013.25 1011.86 1010.45 1008.87 1007.97 1007.32 1007.26 1007.09 1007.32 1007.71 1007.95 1008.41 1008.63 1009.54 1010.29 1010.71 1011.30 1012.19 1012.17 1012.46 1013.12 1013.52
1035.94 1035.94 1035.32 1034.65 1034.30 1033.96 1033.54 1032.68 1032.09 1031.33 1030.29 1029.45 1028.51 1027.33 1026.15 1024.89 1023.33 1021.65 1019.76 1018.84 1017.99 1016.28 1013.99 1012.80 1011.64 1010.96 1010.58 1009.93 1009.18 1008.36 1008.58 1008.93 1008.98 1009.11 1009.40 1010.07 1010.74 1011.45 1011.75 1012.18 1012.91 1013.64 1014.11 1014.37
1036.16 1035.89 1035.23 1034.91 1034.41 1033.65 1033.24 1032.59 1031.89 1031.33 1030.55 1029.23 1028.57 1027.73 1026.58 1025.56 1024.31 1023.23 1022.04 1020.35 1018.62 1017.19 1016.10 1014.78 1013.32 1012.73 1011.75 1010.76 1009.97 1009.73 1010.18 1010.31 1010.36 1010.46 1010.51 1010.97 1011.45 1012.22 1012.88 1013.23 1013.95 1014.11 1014.71 1015.32
1036.30 1036.28 1036.03 1035.75 1035.18 1034.44 1033.66 1032.49 1032.14 1031.26 1030.79 1029.91 1028.90 1027.85 1027.17 1026.34 1025.35 1024.01 1022.71 1021.48 1020.20 1019.03 1018.34 1016.83 1016.17 1015.39 1014.11 1012.83 1012.09 1011.94 1011.80 1011.40 1011.04 1011.49 1011.87 1011.97 1012.56 1013.23 1013.62 1013.86 1014.38 1015.10 1015.45 1015.94
1036.87 1036.40 1036.20 1035.90 1035.31 1034.64 1034.02 1033.18 1032.64 1031.53 1030.77 1030.45 1029.57 1028.48 1027.32 1026.30 1025.35 1024.76 1023.52 1022.44 1021.46 1020.32 1019.72 1018.55 1017.76 1016.76 1015.91 1014.75 1013.96 1013.25 1012.71 1012.38 1012.28 1012.65 1012.91 1013.06 1013.48 1013.86 1014.59 1014.87 1015.38 1015.75 1016.42 1016.93
1036.31 1035.93 1035.77 1035.61 1035.42 1034.63 1033.53 1032.80 1032.18 1031.47 1030.71 1030.44 1030.00 1029.38 1028.49 1027.34 1026.16 1025.03 1024.31 1023.16 1021.95 1021.15 1020.08 1019.19 1018.47 1017.63 1016.72 1015.55 1014.96 1014.55 1014.13 1013.83 1013.90 1014.07 1014.31 1014.38 1014.53 1014.94 1015.47 1015.62 1016.22 1016.68 1017.63 1018.33
1036.24 1035.82 1035.57 1035.18 1034.83 1034.36 1033.40 1032.59 1031.88 1031.33 1030.40 1030.12 1029.82 1029.32 1028.57 1027.83 1026.91 1025.80 1024.56 1023.74 1022.41 1021.17 1020.49 1019.92 1019.16 1018.33 1017.31 1016.61 1016.18 1015.81 1015.36 1015.02 1015.08 1015.19 1015.17 1015.39 1015.76 1016.01 1016.43 1016.93 1017.51 1018.23 1018.58 1019.08
1035.56 1035.12 1034.79 1034.51 1034.05 1033.56 1032.83 1031.82 1031.26 1030.87 1030.19 1029.71 1029.51 1029.20 1028.65 1027.92 1027.26 1026.39 1025.42 1024.22 1023.67 1022.88 1021.69 1020.52 1019.23 1018.79 1018.60 1018.36 1017.79 1017.34 1016.96 1016.56 1016.34 1016.28 1016.33 1016.54 1016.82 1016.90 1017.44 1017.97 1018.63 1019.05 1019.54 1020.28
1034.59 1034.14 1033.81 1033.49 1032.98 1032.45 1031.87 1031.52 1031.03 1030.65 1030.06 1029.56 1029.37 1029.10 1028.69 1027.99 1027.23 1026.43 1025.63 1025.02 1024.09 1022.81 1022.08 1021.18 1020.51 1019.84 1019.50 1019.31 1019.01 1018.64 1018.04 1017.79 1017.62 1017.77 1017.94 1018.07 1018.20 1018.31 1018.75 1019.36 1019.81 1020.25 1020.70 1021.29
1033.35 1033.10 1032.84 1032.51 1032.13 1031.88 1031.49 1030.97 1030.63 1030.36 1029.94 1029.45 1029.09 1028.79 1028.47 1027.88 1027.40 1026.87 1026.19 1025.51 1024.15 1023.18 1022.48 1021.65 1021.32 1020.84 1020.52 1020.12 1019.74 1019.20 1018.91 1018.88 1018.75 1018.98 1019.24 1019.23 1019.48 1019.56 1019.87 1020.41 1020.93 1021.25 1021.79 1022.24
1032.16 1032.08 1032.00 1031.82 1031.64 1031.49 1030.97 1031.11 1030.53 1030.17 1029.85 1029.39 1029.05 1028.71 1028.48 1028.12 1027.67 1027.17 1026.19 1025.44 1024.44 1023.84 1023.39 1022.73 1021.94 1021.60 1021.41 1021.15 1021.04 1020.90 1020.83 1020.76 1020.71 1020.63 1020.50 1020.40 1020.61 1020.73 1020.80 1021.44 1021.76 1022.19 1022.64 1023.21
1031.07 1031.13 1031.12 1030.88 1030.68 1030.77 1030.73 1030.32 1030.37 1029.95 1029.57 1029.20 1028.87 1028.71 1028.58 1028.27 1027.77 1027.59 1027.21 1026.48 1025.56 1025.11 1024.32 1023.54 1023.16 1022.75 1022.46 1022.39 1022.21 1022.07 1021.93 1021.65 1021.55 1021.55 1021.49 1021.46 1021.64 1021.80 1022.19 1022.47 1022.83 1023.27 1023.87 1024.38
1030.58 1030.77 1030.76 1030.90 1030.87 1030.53 1030.11 1029.85 1029.92 1029.64 1029.21 1028.89 1028.62 1028.50 1028.43 1028.48 1028.46 1027.93 1027.59 1027.09 1026.45 1025.95 1025.42 1024.80 1024.16 1023.77 1023.47 1023.42 1023.27 1023.11 1022.91 1022.74 1022.65 1022.54 1022.59 1022.60 1022.64 1022.91 1023.32 1023.71 1024.12 1024.39 1025.04 1025.56
1030.40 1030.54 1030.42 1030.36 1030.26 1030.41 1030.01 1029.63 1029.70 1029.38 1028.99 1028.61 1028.36 1028.31 1028.29 1028.29 1028.24 1028.09 1027.90 1027.49 1027.08 1026.66 1026.34 1025.81 1025.10 1024.66 1024.41 1024.45 1024.57 1024.37 1024.22 1023.94 1023.77 1023.77 1023.83 1023.92 1024.14 1024.33 1024.47 1024.90 1025.48 1025.69 1026.17 1026.70
1030.14 1030.03 1030.08 1030.01 1029.81 1029.85 1029.64 1029.31 1029.34 1029.08 1028.72 1028.43 1028.21 1028.20 1028.21 1028.15 1028.18 1028.17 1028.06 1027.93 1027.67 1027.33 1027.12 1026.63 1025.96 1025.46 1025.20 1025.36 1025.56 1025.55 1025.40 1025.01 1024.79 1024.82 1025.02 1025.20 1025.42 1025.58 1025.90 1026.31 1026.86 1027.10 1027.38 1027.84
Wind_Speed
13 19 16 14 11 3 4 8 8 20 26 29 25 34 32 33 32 28 30 28 24 22 19 16 15 14 7 13 14 15 15 15 15 12 10 13 12 19 22 22 21 21 21 19
13 3 2 4 3 4 7 10 13 18 24 12 30 28 31 32 30 31 32 30 28 26 22 17 15 14 12 13 16 17 18 17 13 13 14 14 15 11 19 20 20 19 20 20
7 8 6 3 6 6 12 12 11 7 15 24 30 30 32 33 25 32 30 29 29 25 20 17 16 13 12 7 17 20 17 16 13 13 13 15 13 13 15 19 19 19 19 19
7 9 6 8 4 9 8 10 3 8 25 24 26 28 31 18 30 31 31 29 27 22 22 20 16 11 10 11 15 16 16 16 13 14 14 15 14 15 14 14 19 18 17 16
3 2 8 3 5 9 6 20 5 19 25 26 28 24 18 27 31 28 31 26 23 22 19 17 14 12 10 5 16 16 16 16 13 13 14 17 11 13 15 14 15 16 16 19
4 3 5 6 10 15 5 7 15 24 23 26 28 22 21 37 35 35 33 28 23 22 20 17 17 11 10 16 16 15 15 14 13 12 11 15 13 13 12 14 14 11 14 15
4 5 8 3 15 11 9 10 24 21 21 22 18 17 28 30 30 29 30 31 33 24 20 18 17 10 14 14 15 13 14 13 12 12 12 11 10 10 10 11 11 12 13 12
2 3 8 3 4 4 6 10 16 20 18 23 22 24 25 27 27 30 32 36 32 29 24 22 17 11 12 15 12 14 15 14 12 12 10 9 12 10 11 13 12 12 12 10
7 7 1 2 4 6 5 13 10 19 21 21 24 25 26 25 27 25 28 27 26 25 24 21 20 14 14 8 13 15 16 13 12 12 11 11 11 11 9 10 10 9 10 9
4 3 5 10 4 3 8 9 15 16 20 20 23 24 26 24 22 19 21 22 23 25 27 21 20 15 13 12 11 14 13 11 11 15 9 9 7 7 9 8 8 9 9 9
7 8 9 1 3 6 12 12 15 17 16 18 20 22 22 22 23 21 20 21 23 22 22 21 19 18 15 13 8 14 11 9 10 8 10 10 9 5 5 4 7 10 9 11
6 4 5 9 7 11 8 15 14 17 19 17 17 20 22 19 20 20 21 20 21 23 20 22 20 19 17 15 12 10 10 8 6 8 8 9 9 9 15 15 14 11 11 10
5 1 6 13 10 4 9 13 14 14 16 15 17 16 18 20 21 25 20 22 22 20 20 21 20 20 19 16 12 12 11 7 7 7 8 8 7 8 10 10 16 16 14 14
5 2 6 3 4 11 10 13 13 10 10 11 11 14 15 16 17 20 22 21 19 18 21 20 20 20 18 14 11 11 12 15 6 6 7 7 7 6 7 8 8 6 12 15
9 8 8 6 8 6 4 8 13 12 13 16 13 13 15 17 18 17 17 18 19 19 19 20 21 21 19 17 15 15 8 5 7 6 7 9 8 7 6 8 7 8 8 11
2 5 4 4 8 8 5 8 10 13 13 13 14 16 14 12 12 14 16 17 17 16 17 18 17 17 16 16 13 8 6 14 13 6 5 8 7 6 7 7 8 7 8 9
2 5 3 4 4 7 6 7 8 10 11 11 13 14 14 14 13 13 16 15 14 13 15 15 15 15 14 12 10 7 6 8 13 7 6 6 6 7 6 7 8 8 7 8
3 3 4 5 7 8 10 8 8 9 9 10 10 9 10 12 13 15 14 14 13 12 16 15 16 14 14 13 11 7 6 7 6 5 5 6 7 7 7 8 8 9 9 12
6 6 6 7 7 7 8 7 6 8 7 7 9 10 8 8 10 12 14 12 15 16 17 14 22 16 14 17 13 7 7 7 7 6 6 10 7 7 8 8 9 8 8 8
5 5 6 7 7 6 8 5 6 6 6 6 8 8 9 9 10 10 11 11 11 9 12 15 14 12 10 12 14 7 7 7 7 6 6 7 7 8 9 12 9 8 8 8
8 6 7 7 7 7 6 5 4 6 7 5 7 8 9 8 9 10 9 8 13 15 15 17 11 8 7 9 8 6 7 7 7 7 6 6 7 7 8 8 8 7 8 8
4 4 6 6 5 6 6 5 4 5 5 5 5 6 8 9 9 9 6 8 9 21 12 9 8 15 9 14 7 8 8 8 7 6 6 6 6 7 8 8 8 7 8 8
5 5 6 6 5 5 5 6 5 4 5 4 5 6 7 6 5 7 9 12 10 14 8 7 15 17 16 8 7 7 7 7 6 6 6 6 7 7 8 8 8 8 8 8
4 5 6 5 4 4 5 4 5 5 5 5 4 3 4 6 6 2 6 11 16 13 10 11 13 17 15 7 7 6 6 6 6 6 7 11 7 7 8 8 9 8 9 11
5 5 3 5 5 5 4 3 4 5 4 4 4 3 3 2 2 5 5 5 12 9 7 13 16 17 8 7 7 8 7 6 6 7 7 7 8 8 8 8 8 9 8 8
3 4 4 5 4 3 3 1 3 3 3 3 2 1 2 2 3 3 3 6 5 8 6 6 6 7 8 8 8 7 7 7 8 8 9 8 8 8 9 9 8 8 8 8
3 7 3 3 2 4 3 3 3 3 3 3 3 1 2 2 4 4 5 3 3 4 4 5 5 8 7 8 8 8 7 7 11 8 8 8 8 8 8 8 8 8 8 8
Wind_Direction
255 269 274 262 269 180 199 242 270 304 301 301 322 320 317 313 314 316 326 325 326 324 318 314 308 301 263 194 187 201 174 184 198 177 137 122 147 160 154 155 156 157 156 163
296 278 169 271 176 305 289 275 267 293 287 311 311 313 316 316 319 327 327 326 328 325 322 321 317 308 309 179 181 181 181 182 184 159 144 143 141 169 156 154 155 152 160 163
273 314 325 5 210 254 289 287 293 313 308 322 319 322 320 318 324 327 325 326 325 322 320 317 307 298 283 228 184 175 165 161 151 142 142 141 137 156 165 152 153 160 160 165
287 333 359 238 232 231 246 293 180 322 322 322 315 312 305 312 326 326 325 327 326 324 325 320 299 301 284 246 177 151 143 148 142 143 143 133 155 164 156 154 157 162 162 163
319 254 283 41 329 320 5 311 191 337 329 324 321 313 316 334 328 327 324 326 325 322 317 306 313 294 279 243 149 131 138 143 146 149 158 121 161 171 159 156 158 161 166 168
337 336 279 239 314 313 113 290 339 342 328 326 329 341 326 330 331 330 328 330 333 334 331 341 334 304 247 137 125 128 135 131 134 126 130 152 162 159 160 155 159 158 166 173
288 271 288 312 314 305 50 278 333 324 321 322 327 312 307 319 326 328 328 334 337 348 346 342 328 289 126 129 117 115 110 114 117 129 128 128 126 129 133 135 141 150 154 157
321 337 308 2 340 64 242 306 315 311 319 318 317 316 324 325 332 333 335 337 347 348 350 351 347 48 88 102 110 110 110 106 110 111 115 127 126 120 129 132 132 137 134 132
185 237 266 304 237 270 297 305 309 311 318 318 318 326 328 332 335 336 340 339 342 353 345 355 10 13 47 12 101 102 97 106 105 101 96 99 117 122 120 126 131 135 136 134
353 275 282 300 297 277 307 301 310 311 315 320 323 326 330 333 337 344 343 341 340 346 356 355 6 13 34 26 81 87 88 93 107 90 94 101 96 107 119 128 127 129 129 131
261 291 309 241 307 320 315 319 321 316 321 323 325 327 331 334 337 340 348 348 347 346 354 352 359 19 24 28 76 89 85 88 86 101 103 86 70 70 107 77 140 148 147 148
238 217 208 272 300 318 314 321 323 317 327 334 332 327 330 335 335 342 343 349 352 347 354 357 5 16 19 24 38 87 90 82 101 103 93 91 97 87 65 82 90 88 113 138
240 152 235 271 290 283 312 316 317 323 315 327 328 329 332 334 337 343 347 345 350 351 352 354 5 11 15 19 30 54 64 59 81 101 104 112 105 110 104 75 87 95 93 107
243 41 293 223 277 318 301 304 314 304 302 320 323 330 335 337 338 344 345 343 342 346 356 360 1 13 10 13 28 53 55 49 58 64 83 87 90 93 106 110 111 99 106 119
249 215 243 300 297 296 288 314 328 336 332 331 340 335 342 341 340 338 338 340 345 358 0 357 5 3 359 2 20 36 32 44 59 61 74 81 83 78 92 103 108 106 110 106
271 260 287 261 295 309 314 330 330 331 336 328 335 338 335 328 333 336 340 348 351 355 356 359 4 354 353 0 10 26 30 62 66 60 73 83 77 90 94 93 95 102 114 116
37 327 329 305 292 310 299 297 293 312 324 330 329 328 331 332 340 350 343 346 346 346 358 359 355 356 350 9 10 8 19 34 62 60 62 71 89 91 86 98 105 99 86 112
214 203 221 227 276 293 307 307 307 311 330 321 318 319 336 343 337 334 339 333 348 0 6 355 0 358 353 10 14 12 24 40 48 60 70 79 83 88 97 94 92 96 99 102
217 246 260 258 254 266 276 290 298 297 314 327 328 330 314 325 332 328 329 347 358 354 359 350 1 5 5 5 19 10 17 38 47 52 62 80 81 87 90 93 97 95 98 95
260 240 260 271 273 239 277 267 283 304 307 333 324 331 337 336 333 334 331 338 352 335 351 354 356 4 5 9 20 14 19 37 49 54 59 67 73 81 88 92 96 97 94 97
248 250 256 260 272 278 267 280 299 310 310 332 335 335 328 320 334 334 344 352 347 347 1 360 4 10 360 16 18 25 34 36 48 51 63 72 82 80 85 87 91 95 97 99
226 241 259 263 266 284 287 284 278 297 308 320 319 328 334 340 341 338 322 339 337 354 352 355 5 20 25 28 11 21 29 31 37 45 54 67 78 86 84 86 89 89 91 93
239 243 257 265 267 268 295 297 286 283 297 307 322 331 335 326 330 343 341 339 346 353 348 359 17 30 34 25 23 25 35 47 54 57 62 68 73 78 86 86 84 87 89 86
241 248 249 255 268 277 290 294 292 283 277 286 301 311 333 334 333 322 321 334 343 4 355 18 30 40 39 22 20 34 30 40 50 58 72 73 72 77 80 88 86 86 87 88
246 257 258 270 273 262 249 266 297 290 288 284 284 311 330 322 293 320 329 327 350 4 350 15 40 43 37 30 28 28 29 50 50 56 61 67 71 74 75 78 84 89 87 87
251 246 246 245 238 259 260 253 267 276 283 282 281 307 331 328 323 348 334 351 356 12 351 340 29 37 40 39 29 32 43 46 50 62 63 64 69 73 75 76 77 79 83 84
264 265 255 271 244 248 240 233 252 267 291 291 289 307 334 352 346 5 2 350 348 6 353 351 12 44 52 50 32 27 29 44 64 61 59 62 63 68 73 77 79 80 80 83